Tracking 27107 objects as of 21-Mar-2023
HD Live streaming from Space Station
objects crossing your sky now

UNHA 3 R/B

Track UNHA 3 R/B now!
10-day predictions


NORAD ID: 41333
Int'l Code: 2016-009B
Perigee: 345.5 km
Apogee: 368.0 km
Inclination: 97.3 °
Period: 91.5 minutes
Semi major axis: 6727 km
RCS: Unknown
Launch date: February 7, 2016
Source: North Korea (NKOR)
Launch site: Yunsong, DPRK (YUN)

Note: This is a ROCKET BODY
Your satellite tracking list
Your tracking list is empty




NASA's NSSDC Master Catalog

Two Line Element Set (TLE):
1 41333U 16009B   23080.29206432  .00128514  00000-0  91605-3 0  9996
2 41333  97.3425 195.1953 0016729 315.5652  44.4269 15.73245020400014
Source of the keplerian elements: AFSPC